When you browse on this site, cookies collect data to enhance your experience and personalize the content and advertising you see.
Visit our Privacy Policy to learn more. By continuing to use the site, you agree to this use of cookies and data.
  • en France
  • Liste des pays
  • À 7 jours
  • Température de l'eau
  • Carte météo
  • Widgets météo
  • user-avatar
    Se connecter

    Météo par heure à Thompson

    Ce jour, 1 Juin, Lundi

    Heure Température Précipitation Vent Pression Humidité
    00:00 +12°C° 0 mm 5 m/s 739 mmHg 38%
    01:00 +12°C° 0 mm 5 m/s 738 mmHg 38%
    02:00 +12°C° 0 mm 5 m/s 738 mmHg 37%
    03:00 +10°C° 0.1 mm 6 m/s 737 mmHg 41%
    04:00 +10°C° 0.1 mm 6 m/s 736 mmHg 45%
    05:00 +10°C° 0.1 mm 6 m/s 735 mmHg 49%
    06:00 +9°C° 0.2 mm 6 m/s 734 mmHg 57%
    07:00 +9°C° 0.2 mm 7 m/s 734 mmHg 66%
    08:00 +8°C° 0.2 mm 7 m/s 733 mmHg 74%
    09:00 +8°C° 0.6 mm 7 m/s 732 mmHg 77%
    10:00 +6°C° 0.6 mm 7 m/s 732 mmHg 81%
    11:00 +6°C° 0.6 mm 7 m/s 731 mmHg 84%
    12:00 +7°C° 0.3 mm 6 m/s 731 mmHg 85%
    13:00 +7°C° 0.3 mm 6 m/s 730 mmHg 85%
    14:00 +7°C° 0.3 mm 6 m/s 730 mmHg 86%
    15:00 +7°C° 1.2 mm 6 m/s 730 mmHg 88%
    16:00 +7°C° 1.2 mm 6 m/s 730 mmHg 89%
    17:00 +7°C° 1.2 mm 5 m/s 730 mmHg 91%
    18:00 +7°C° 0.1 mm 5 m/s 731 mmHg 92%
    19:00 +7°C° 0.1 mm 4 m/s 731 mmHg 92%
    20:00 +7°C° 0.1 mm 4 m/s 732 mmHg 93%
    21:00 +8°C° 0 mm 3 m/s 732 mmHg 94%
    22:00 +8°C° 0 mm 2 m/s 732 mmHg 94%
    23:00 +8°C° 0 mm 2 m/s 732 mmHg 95%

    Demain, 2 Juin, Mardi

    Heure Température Précipitation Vent Pression Humidité
    00:00 +7°C° 0 mm 2 m/s 733 mmHg 95%
    01:00 +7°C° 0 mm 2 m/s 733 mmHg 95%
    02:00 +7°C° 0 mm 2 m/s 734 mmHg 95%
    03:00 +8°C° 0 mm 1 m/s 734 mmHg 95%
    04:00 +8°C° 0 mm 1 m/s 734 mmHg 95%
    05:00 +8°C° 0 mm 1 m/s 734 mmHg 95%
    06:00 +9°C° 0 mm 1 m/s 734 mmHg 94%
    07:00 +9°C° 0 mm 1 m/s 734 mmHg 93%
    08:00 +9°C° 0 mm 1 m/s 735 mmHg 92%
    09:00 +10°C° 0 mm 1 m/s 735 mmHg 88%
    10:00 +12°C° 0 mm 2 m/s 735 mmHg 84%
    11:00 +13°C° 0 mm 2 m/s 735 mmHg 80%
    12:00 +14°C° 0.1 mm 2 m/s 735 mmHg 76%
    13:00 +14°C° 0.1 mm 3 m/s 735 mmHg 72%
    14:00 +14°C° 0.1 mm 4 m/s 735 mmHg 68%
    15:00 +15°C° 0 mm 4 m/s 735 mmHg 64%
    16:00 +16°C° 0 mm 3 m/s 736 mmHg 61%
    17:00 +16°C° 0 mm 3 m/s 736 mmHg 57%
    18:00 +15°C° 0 mm 2 m/s 736 mmHg 65%
    19:00 +13°C° 0 mm 2 m/s 736 mmHg 73%
    20:00 +11°C° 0 mm 1 m/s 736 mmHg 81%
    21:00 +10°C° 0 mm 1 m/s 737 mmHg 84%
    22:00 +9°C° 0 mm 1 m/s 737 mmHg 88%
    23:00 +7°C° 0 mm 0 m/s 737 mmHg 91%

    Après-demain, 3 Juin, Mercredi

    Heure Température Précipitation Vent Pression Humidité
    00:00 +7°C° 0 mm 0 m/s 737 mmHg 91%
    01:00 +7°C° 0 mm 0 m/s 737 mmHg 91%
    02:00 +7°C° 0 mm 0 m/s 738 mmHg 92%
    03:00 +9°C° 0 mm 1 m/s 738 mmHg 87%
    04:00 +9°C° 0 mm 1 m/s 738 mmHg 82%
    05:00 +10°C° 0 mm 1 m/s 738 mmHg 78%
    06:00 +13°C° 0 mm 1 m/s 738 mmHg 66%
    07:00 +16°C° 0 mm 2 m/s 738 mmHg 55%
    08:00 +18°C° 0 mm 2 m/s 738 mmHg 43%
    09:00 +20°C° 0 mm 2 m/s 737 mmHg 39%
    10:00 +23°C° 0 mm 2 m/s 737 mmHg 34%
    11:00 +24°C° 0 mm 2 m/s 737 mmHg 30%
    12:00 +24°C° 0 mm 2 m/s 737 mmHg 30%
    13:00 +24°C° 0 mm 2 m/s 736 mmHg 31%
    14:00 +22°C° 0 mm 3 m/s 736 mmHg 31%
    15:00 +23°C° 0 mm 2 m/s 736 mmHg 32%
    16:00 +23°C° 0 mm 2 m/s 735 mmHg 33%
    17:00 +23°C° 0 mm 2 m/s 735 mmHg 34%
    18:00 +20°C° 0 mm 3 m/s 735 mmHg 39%
    19:00 +18°C° 0 mm 3 m/s 735 mmHg 44%
    20:00 +17°C° 0 mm 3 m/s 735 mmHg 48%
    21:00 +14°C° 0 mm 3 m/s 736 mmHg 55%
    22:00 +12°C° 0 mm 3 m/s 736 mmHg 62%
    23:00 +10°C° 0 mm 3 m/s 736 mmHg 69%

    4 Juin, Jeudi

    Heure Température Précipitation Vent Pression Humidité
    00:00 +9°C° 0 mm 3 m/s 736 mmHg 74%
    01:00 +8°C° 0 mm 3 m/s 736 mmHg 78%
    02:00 +7°C° 0 mm 3 m/s 736 mmHg 83%
    03:00 +7°C° 0 mm 3 m/s 736 mmHg 81%
    04:00 +5°C° 0 mm 3 m/s 736 mmHg 80%
    05:00 +5°C° 0 mm 4 m/s 736 mmHg 78%
    06:00 +7°C° 0 mm 4 m/s 737 mmHg 71%
    07:00 +10°C° 0 mm 4 m/s 737 mmHg 63%
    08:00 +11°C° 0 mm 4 m/s 737 mmHg 56%
    09:00 +13°C° 0 mm 4 m/s 737 mmHg 50%
    10:00 +16°C° 0 mm 3 m/s 737 mmHg 44%
    11:00 +18°C° 0 mm 3 m/s 737 mmHg 38%
    12:00 +18°C° 0 mm 3 m/s 737 mmHg 38%
    13:00 +18°C° 0 mm 3 m/s 737 mmHg 38%
    14:00 +18°C° 0 mm 3 m/s 737 mmHg 38%
    15:00 +18°C° 0 mm 3 m/s 737 mmHg 38%
    16:00 +18°C° 0 mm 3 m/s 738 mmHg 38%
    17:00 +18°C° 0 mm 3 m/s 738 mmHg 38%
    18:00 +16°C° 0 mm 3 m/s 738 mmHg 44%
    19:00 +14°C° 0 mm 3 m/s 738 mmHg 51%
    20:00 +12°C° 0 mm 3 m/s 739 mmHg 58%
    21:00 +10°C° 0 mm 3 m/s 739 mmHg 64%
    22:00 +9°C° 0 mm 2 m/s 740 mmHg 70%
    23:00 +7°C° 0 mm 2 m/s 740 mmHg 76%

    5 Juin, Vendredi

    Heure Température Précipitation Vent Pression Humidité
    00:00 +7°C° 0 mm 2 m/s 740 mmHg 80%
    01:00 +6°C° 0 mm 2 m/s 741 mmHg 84%
    02:00 +6°C° 0 mm 1 m/s 741 mmHg 88%
    03:00 +6°C° 0 mm 2 m/s 741 mmHg 84%
    04:00 +7°C° 0 mm 2 m/s 742 mmHg 79%
    05:00 +7°C° 0 mm 2 m/s 742 mmHg 75%
    06:00 +9°C° 0 mm 3 m/s 742 mmHg 67%
    07:00 +11°C° 0 mm 3 m/s 742 mmHg 59%
    08:00 +13°C° 0 mm 3 m/s 742 mmHg 52%
    09:00 +13°C° 0 mm 3 m/s 742 mmHg 51%
    10:00 +14°C° 0 mm 3 m/s 742 mmHg 51%
    11:00 +14°C° 0 mm 3 m/s 742 mmHg 50%
    12:00 +14°C° 0.9 mm 2 m/s 742 mmHg 63%
    13:00 +13°C° 0.9 mm 2 m/s 742 mmHg 76%
    14:00 +11°C° 0.9 mm 1 m/s 742 mmHg 89%
    15:00 +12°C° 0.3 mm 1 m/s 742 mmHg 86%
    16:00 +13°C° 0.3 mm 1 m/s 742 mmHg 84%
    17:00 +14°C° 0.3 mm 1 m/s 742 mmHg 82%
    18:00 +12°C° 0 mm 1 m/s 743 mmHg 86%
    19:00 +11°C° 0 mm 1 m/s 743 mmHg 90%
    20:00 +10°C° 0 mm 1 m/s 743 mmHg 94%
    21:00 +10°C° 0 mm 1 m/s 743 mmHg 95%
    22:00 +9°C° 0 mm 1 m/s 743 mmHg 96%
    23:00 +9°C° 0 mm 1 m/s 744 mmHg 96%

    6 Juin, Samedi

    Heure Température Précipitation Vent Pression Humidité
    00:00 +8°C° 0 mm 1 m/s 744 mmHg 96%
    01:00 +8°C° 0 mm 1 m/s 745 mmHg 97%
    02:00 +8°C° 0 mm 1 m/s 745 mmHg 97%
    03:00 +9°C° 0 mm 1 m/s 745 mmHg 95%
    04:00 +8°C° 0 mm 2 m/s 745 mmHg 93%
    05:00 +9°C° 0 mm 2 m/s 745 mmHg 91%
    06:00 +12°C° 0 mm 2 m/s 746 mmHg 81%
    07:00 +14°C° 0 mm 2 m/s 746 mmHg 72%
    08:00 +16°C° 0 mm 2 m/s 746 mmHg 62%
    09:00 +18°C° 0 mm 2 m/s 746 mmHg 52%
    10:00 +19°C° 0 mm 2 m/s 746 mmHg 42%
    11:00 +21°C° 0 mm 2 m/s 745 mmHg 32%
    12:00 +23°C° 0 mm 2 m/s 745 mmHg 28%
    13:00 +22°C° 0 mm 3 m/s 745 mmHg 25%
    14:00 +24°C° 0 mm 3 m/s 744 mmHg 21%
    15:00 +24°C° 0 mm 3 m/s 744 mmHg 21%
    16:00 +24°C° 0 mm 3 m/s 744 mmHg 21%
    17:00 +22°C° 0 mm 4 m/s 743 mmHg 21%
    18:00 +20°C° 0 mm 4 m/s 743 mmHg 26%
    19:00 +18°C° 0 mm 3 m/s 743 mmHg 31%
    20:00 +16°C° 0 mm 3 m/s 743 mmHg 36%
    21:00 +14°C° 0 mm 3 m/s 743 mmHg 41%
    22:00 +13°C° 0 mm 4 m/s 743 mmHg 45%
    23:00 +11°C° 0 mm 4 m/s 743 mmHg 50%
    Voir plus